Regional Weather Roundup
Issued by NWS

Home | Current Version | Previous Version | Text Only | Print | Product List | Glossary On
Versions: 1 2 3 4 5 6 7 8 9 10 11 12 13 14 15 16 17 18 19 20 21 22 23 24 25 26 27 28 29 30 31 32 33 34 35 36 37 38 39 40 41 42 43 44 45 46 47 48 49 50
000
ASUS43 KTOP 250459
RWRKS

WEATHER ROUNDUP FOR KANSAS
NATIONAL WEATHER SERVICE GOODLAND KS
1100 PM CST SAT FEB 24 2018

NOTE:  "FAIR" INDICATES FEW OR NO CLOUDS BELOW 12,000 FEET WITH NO
SIGNIFICANT WEATHER AND/OR OBSTRUCTIONS TO VISIBILITY.

KSZ001>006-013>018-027>032-041>047-250600-
NORTHWEST KANSAS

CITY           SKY/WX    TMP DP  RH WIND       PRES   REMARKS
GOODLAND       PTCLDY    18  11  74 W3        29.88R
HAYS           CLEAR     21  12  68 SW6       29.94R
HILL CITY      CLEAR     23  14  68 CALM      29.93R
RUSSELL        CLEAR     24  16  71 SW6       29.93R
$$

KSZ061>065-074>080-084>089-250600-
SOUTHWEST KANSAS

CITY           SKY/WX    TMP DP  RH WIND       PRES   REMARKS
DODGE CITY     CLEAR     24   7  48 CALM      29.97R
GARDEN CITY    CLEAR     22   5  48 SE5       29.95R
GREAT BEND     CLEAR     26  16  65 W8        29.97R
LIBERAL        CLEAR     24  18  77 S8        29.93R
$$

KSZ066>073-081>083-090>101-250600-
SOUTHEAST KANSAS

CITY           SKY/WX    TMP DP  RH WIND       PRES   REMARKS
CHANUTE        CLEAR     31  28  89 SW6       29.97R
COFFEYVILLE    CLEAR     32  30  92 S7        30.00R
HUTCHINSON     CLEAR     23  22  96 NW3       29.96R FOG
MEDICINE LODGE   N/A     26  24  92 N6        29.98R
NEWTON         CLEAR     29  27  92 W6        29.97R
PARSONS        CLEAR     30  30 100 CALM      30.00R
WICHITA INTL   CLEAR     30  27  88 W8        29.97R
WICHITA JABRA  CLEAR     32  29  88 SW6       29.96R
WICHITA MCCONL CLEAR     34  29  83 W5        29.97R
WINFIELD       CLEAR     31  31 100 CALM      29.99R
$$

KSZ007>012-019>026-033>040-048>060-102>105-250600-
NORTHEAST KANSAS

CITY           SKY/WX    TMP DP  RH WIND       PRES   REMARKS
CONCORDIA      CLEAR     28  20  71 W9        29.92R
EMPORIA        CLEAR     27  24  89 W3        29.94R
LAWRENCE       CLEAR     30  28  92 SW6       29.92R
MANHATTAN      CLEAR     26  24  92 CALM      29.93R
OLATHE IND     CLEAR     29  27  92 SW7       29.92R
OLATHE EXE     CLEAR     30  29  96 MISG      29.91R
SALINA         CLEAR     31  23  72 W8        29.96R
TOPEKA BILLARD CLEAR     32  29  88 SW5       29.91R
TOPEKA FORBES  CLEAR     30  28  92 SW10      29.91R WCI  21
$$




USA.gov is the U.S. government's official web portal to all federal, state and local government web resources and services.